Location: Home
(42.5358°N, 72.7383°W)
Time: 12:53:11
(UTC-05:00)

Tiros 1 - Pass Details

Date: 02 December 2021
Orbit: 629 x 664 km, 48.4° (Epoch: 26 January)

Event Time Altitude Azimuth Distance (km) Brightness Sun altitude
Rises 00:09:46 0° 296° (WNW) 2,961 - -68.6°
Reaches altitude 10° 00:12:06 10° 297° (WNW) 2,055 - -68.4°
Maximum altitude 00:16:51 82° 25° (NNE) 665 - -68.1°
Drops below altitude 10° 00:21:39 10° 114° (ESE) 2,068 - -67.7°
Sets 00:24:00 0° 115° (ESE) 2,981 - -67.5°
